TimePDT,TemperatureF,Dew PointF,Humidity,Sea Level PressureIn,VisibilityMPH,Wind Direction,Wind SpeedMPH,Gust SpeedMPH,PrecipitationIn,Events,Conditions,WindDirDegrees,DateUTC
12:53 AM,39.9,33.1,77,30.25,10.0,Calm,Calm,-,N/A,,Clear,0,2013-03-24 07:53:00
1:53 AM,39.0,32.0,76,30.24,10.0,Calm,Calm,-,N/A,,Clear,0,2013-03-24 08:53:00
2:53 AM,37.0,32.0,82,30.25,10.0,Calm,Calm,-,N/A,,Clear,0,2013-03-24 09:53:00
3:53 AM,36.0,30.9,82,30.23,10.0,Calm,Calm,-,N/A,,Clear,0,2013-03-24 10:53:00
4:53 AM,35.1,30.9,85,30.23,10.0,Calm,Calm,-,N/A,,Clear,0,2013-03-24 11:53:00
5:53 AM,35.1,32.0,89,30.23,10.0,Calm,Calm,-,N/A,,Clear,0,2013-03-24 12:53:00
6:53 AM,35.1,30.9,85,30.22,10.0,Calm,Calm,-,N/A,,Clear,0,2013-03-24 13:53:00
7:53 AM,35.1,32.0,89,30.21,10.0,Calm,Calm,-,N/A,,Clear,0,2013-03-24 14:53:00
8:53 AM,36.0,33.1,89,30.21,10.0,SW,4.6,-,N/A,,Clear,230,2013-03-24 15:53:00
9:53 AM,39.9,34.0,79,30.22,10.0,East,3.5,-,N/A,,Mostly Cloudy,90,2013-03-24 16:53:00
10:53 AM,44.1,34.0,68,30.20,10.0,SSW,3.5,-,N/A,,Clear,210,2013-03-24 17:53:00
11:53 AM,46.9,36.0,66,30.18,10.0,SW,3.5,-,N/A,,Clear,220,2013-03-24 18:53:00
12:53 PM,50.0,34.0,54,30.16,10.0,Calm,Calm,-,N/A,,Mostly Cloudy,0,2013-03-24 19:53:00
1:53 PM,52.0,36.0,54,30.14,10.0,Calm,Calm,-,N/A,,Scattered Clouds,0,2013-03-24 20:53:00
2:53 PM,55.9,36.0,47,30.12,10.0,NNW,3.5,-,N/A,,Clear,330,2013-03-24 21:53:00
3:53 PM,59.0,37.0,44,30.09,10.0,Variable,5.8,-,N/A,,Clear,0,2013-03-24 22:53:00
4:53 PM,57.9,37.0,46,30.08,10.0,North,5.8,-,N/A,,Clear,10,2013-03-24 23:53:00
5:53 PM,57.9,37.9,47,30.07,10.0,North,8.1,-,N/A,,Overcast,360,2013-03-25 00:53:00
6:53 PM,57.0,39.9,53,30.07,10.0,NNW,5.8,-,N/A,,Overcast,330,2013-03-25 01:53:00
7:53 PM,55.0,39.0,55,30.06,10.0,North,3.5,-,N/A,,Mostly Cloudy,10,2013-03-25 02:53:00
8:53 PM,54.0,39.0,57,30.08,10.0,North,3.5,-,N/A,,Mostly Cloudy,10,2013-03-25 03:53:00
9:53 PM,52.0,39.0,61,30.06,10.0,Calm,Calm,-,N/A,,Clear,0,2013-03-25 04:53:00
10:53 PM,48.0,39.0,71,30.08,10.0,Calm,Calm,-,N/A,,Clear,0,2013-03-25 05:53:00
11:53 PM,46.9,39.0,74,30.07,10.0,Calm,Calm,-,N/A,,Clear,0,2013-03-25 06:53:00